Location: Caltech
(34.1382°N, 118.1253°W)
Time: 02:34:43
(UTC-07:00)

OAO 2 Rocket - Visible Passes

Search period start: 17 April 2014 00:00
Search period end: 27 April 2014 00:00
Orbit: 678 x 750 km, 35.0° (Epoch: 16 April)

Date Brightness Start Highest point End Pass type
(mag) Time Alt. Az. Time Alt. Az. Time Alt. Az.
17 Apr 3.6 20:50:17 10° W 20:55:23 56° SSW 20:57:22 34° SE visible
17 Apr 6.1 22:36:18 10° WSW 22:36:23 10° WSW 22:36:23 10° WSW visible
18 Apr 3.5 19:53:13 10° W 19:58:28 72° SSW 20:03:35 10° ESE visible
18 Apr 4.8 21:38:40 10° W 21:42:36 26° SW 21:42:36 26° SW visible
19 Apr 4.3 20:41:21 10° W 20:46:09 37° SSW 20:48:51 22° SSE visible
20 Apr 4.0 19:44:11 10° W 19:49:17 51° SSW 19:54:17 10° SE visible
20 Apr 5.4 21:30:33 10° WSW 21:33:33 16° SW 21:34:09 15° SSW visible
21 Apr 5.1 20:32:43 10° W 20:36:48 23° SSW 20:40:29 11° SSE visible
23 Apr 5.7 20:24:55 10° WSW 20:27:22 13° SW 20:29:48 10° S visible
